Location: Cornelius Cemetery
(36.9614°N, 87.6253°W)
Time: 01:44:11
(UTC+00:00)

Daily predictions for brighter satellites

Satellite Brightness Start Highest point End
(mag) Time Altitude Azimuth Time Altitude Azimuth Time Altitude Azimuth
Cosmos 1378 3.4 01:37:54 10° SSW 01:41:36 75° W 01:45:20 10° N
Cosmos 1707 2.7 01:38:09 10° S 01:41:59 66° E 01:45:49 10° NNE
Cosmos 1607 4.1 01:36:39 10° NNW 01:43:02 71° ENE 01:49:15 10° SE
Cosmos 1626 Rocket 3.9 01:40:33 10° SSW 01:44:59 71° W 01:49:27 10° N
H-2A R/B 3.6 01:41:37 10° ESE 01:45:31 21° ENE 01:49:30 10° NNE
NOSS 2-3 (D) 4.3 01:41:25 10° SW 01:45:52 67° NW 01:50:58 10° NNE
SJ-11-01 4.3 01:44:19 10° SSE 01:49:02 75° ENE 01:53:47 10° N
Cosmos 1315 Rocket 3.8 01:47:49 10° SSE 01:51:20 29° E 01:54:55 10° NNE
OAO 3 Copernicus 4.4 01:47:06 10° W 01:52:09 69° S 01:57:10 10° ESE
Resurs 1-3 3.6 01:50:15 10° SSE 01:54:37 88° WSW 01:59:02 10° NNW
Cosmos 1953 2.7 01:50:59 10° NNW 01:54:57 68° W 01:58:55 10° S
Cosmos 1602 Rocket 4.4 01:55:12 10° SSW 01:59:34 55° W 02:03:59 10° N
Hubble Space Telescope 3.0 01:58:04 10° SW 01:59:43 12° SSW 02:01:22 10° S
H-II Stage 2 4.0 01:58:35 10° SSW 02:00:00 11° S 02:01:06 10° S
Thor Agena Rocket 4.0 01:56:07 10° N 02:01:10 65° WNW 02:06:10 10° SSW
BREEZE-M R/B 2.4 01:59:10 10° WNW 02:02:33 55° SW 02:04:34 14° SE
USA 186 3.6 02:00:08 10° SSW 02:03:06 31° W 02:05:56 10° NNW
Cosmos 1812 Rocket 3.6 02:00:15 10° N 02:04:37 86° W 02:08:59 10° S
Cosmos 1943 3.6 02:03:03 10° NNW 02:08:38 62° WSW 02:14:10 10° S
ERS-2 2.2 02:06:05 10° S 02:09:45 78° WSW 02:13:26 10° NNW
Cosmos 1953 Rocket 4.0 02:06:47 10° SSE 02:10:51 42° E 02:14:59 10° NNE
Cosmos 1726 4.4 02:13:36 10° ENE 02:14:17 10° ENE 02:14:56 10° E
ATLAS 2AS CENTAUR R/B 3.1 02:07:30 10° SSW 02:14:59 59° ESE 02:22:53 10° NE
Cosmos 1238 Rocket 2.8 02:13:47 15° SSE 02:15:47 34° E 02:18:31 10° NNE
Cosmos 1758 Rocket 3.6 02:11:53 10° S 02:16:18 63° E 02:20:40 10° NNE
OAO 3 Rocket 3.2 02:11:44 10° WSW 02:16:40 68° S 02:21:33 10° E
Lacrosse 5 2.0 02:11:52 10° SW 02:16:56 81° NW 02:22:01 10° NE
Resurs 01 Rocket 2.4 02:13:27 10° S 02:17:43 50° W 02:22:03 10° NNW
SL-8 R/B 3.6 02:13:36 10° SW 02:18:24 69° SE 02:23:13 10° ENE
ARGOS 3.4 02:13:56 12° SSE 02:18:43 53° ENE 02:24:00 10° N
Cosmos 1400 Rocket 3.8 02:15:03 10° SSW 02:18:58 48° W 02:22:52 10° N
Helios 1B rocket 4.5 02:21:55 10° ENE 02:23:11 11° E 02:23:15 11° E
Aureole 1 Rocket 2.9 02:20:54 10° SSW 02:23:55 61° WNW 02:27:31 10° NNE
Iridium 4 Rocket 3.7 02:23:18 10° S 02:29:03 88° E 02:34:25 10° N
MetOp-A 4.2 02:24:48 15° SSE 02:29:13 64° ENE 02:34:32 10° N
ERS-1 Rocket 3.7 02:26:46 18° SE 02:30:02 38° ENE 02:34:40 10° N
Cosmos 1844 4.0 02:25:10 10° S 02:30:31 45° ESE 02:35:57 10° NE
Cosmos 1844 Rocket 2.7 02:25:05 10° S 02:30:38 60° ESE 02:36:13 10° NNE
Cosmos 1346 Rocket 3.5 02:26:59 10° N 02:30:45 38° ENE 02:32:47 22° SE
SL-08 RB Rocket 3.8 02:35:38 20° SSE 02:38:46 63° ENE 02:43:23 10° N
Meteor 1-24 Rocket 3.8 02:33:40 10° S 02:39:41 81° E 02:45:43 10° N
ATLAS 3B CENTAUR R/B 4.5 02:23:11 10° SW 02:40:37 34° S 02:46:48 18° ESE
Cosmos 1825 Rocket 4.3 02:37:15 10° SSW 02:41:37 55° W 02:46:01 10° N
USA 215 3.7 02:40:27 17° SSE 02:45:28 54° SW 02:51:53 10° NW
Cosmos 921 Rocket 3.7 02:43:02 10° N 02:47:19 42° ENE 02:49:14 27° ESE
NOSS 3-4 (A) 4.2 02:50:38 24° SE 02:52:40 29° ESE 02:57:56 10° NE
NOSS 3-4 (C) 4.2 02:50:51 24° SE 02:52:46 28° ESE 02:58:00 10° NE
Cosmos 2285 Rocket 4.5 02:51:21 10° SSW 02:57:35 63° WNW 03:03:52 10° NNE
Cosmos 1437 2.8 02:56:43 10° NNW 02:59:52 69° W 03:00:49 40° SSW
Cosmos 1908 3.2 02:57:53 10° N 03:01:44 62° E 03:02:49 42° SE
Cosmos 1461 3.8 03:08:00 33° ESE 03:08:00 33° ESE 03:12:11 10° NE
Cosmos 1626 4.3 03:14:08 14° ENE 03:14:08 14° ENE 03:15:15 10° NE
Meteor 2-1 Rocket 4.3 03:07:31 10° N 03:13:29 79° E 03:16:22 32° SSE
S3M 4.0 03:10:09 24° S 03:14:04 71° E 03:20:27 10° N
Cosmos 220 Rocket 3.9 03:13:14 45° SSE 03:14:13 58° ESE 03:18:22 10° NNE
Terra 2.7 03:14:51 29° E 03:16:01 33° ENE 03:20:17 10° N
CZ-2C R/B 3.8 03:12:42 10° NE 03:16:59 24° E 03:17:05 24° E
Cosmos 1340 2.8 03:14:04 10° N 03:17:47 53° E 03:18:05 51° E
IGS 5A 4.1 03:19:09 37° E 03:19:43 40° ENE 03:23:37 10° N
APEX 4.4 03:17:51 10° N 03:20:32 25° ENE 03:20:32 25° ENE
SPOT 1/Viking Rocket 3.4 03:22:21 40° SSE 03:24:14 81° ENE 03:29:24 10° N
Cosmos 1110 Rocket 3.9 03:19:20 10° NNW 03:24:31 86° WSW 03:26:21 41° SSE
H-2A R/B 3.0 03:21:14 20° SSW 03:24:33 44° W 03:29:42 10° NNW
Cosmos 1674 3.9 03:25:41 21° SW 03:27:45 40° W 03:31:23 10° N
Cosmos-2242 4.2 03:25:47 10° NNW 03:29:51 38° W 03:31:59 23° SW
H-2A R/B (2) 4.4 03:28:29 29° SSE 03:30:57 31° SE 04:06:17 10° ENE
H-2A R/B (2) 4.4 03:28:30 29° SSE 03:30:57 31° SE 04:06:17 10° ENE
Cosmos 1300 3.4 03:28:26 10° N 03:31:48 40° ENE 03:31:48 40° ENE
Cosmos 2084 3.7 03:31:49 10° NW 03:35:30 45° WSW 03:35:44 45° SW
Cosmos 1553 Rocket 4.3 03:33:38 19° SSW 03:37:59 63° W 03:44:01 10° N
Cosmos 1331 Rocket 4.1 03:33:41 10° NNW 03:38:52 72° WSW 03:40:25 45° S
Cosmos 1842 Rocket 3.4 03:36:00 10° N 03:40:22 89° W 03:40:56 67° S
USA 238 DEB 3.7 03:34:07 10° NNW 03:41:18 89° WSW 03:44:13 40° SSE
USA 238 3.7 03:34:12 10° NNW 03:41:25 90° WSW 03:44:19 41° SSE
ATLAS 3B R/B 2.6 03:35:28 10° NNW 03:42:05 70° ENE 03:44:26 41° SE
Meteor 1-21 Rocket 4.3 03:43:13 34° SSW 03:45:55 82° W 03:51:46 10° N
Helios 1A 3.4 03:45:57 47° SW 03:46:37 53° W 03:50:44 10° NNW
SPOT 5 3.5 03:47:50 39° SSW 03:49:25 54° W 03:54:33 10° NNW
Cosmos 1726 3.0 03:46:12 10° NNW 03:49:44 41° W 03:50:03 40° WSW
Cosmos 2278 Rocket 2.1 03:50:06 37° SSW 03:52:28 88° WNW 03:58:10 10° NNE
Cosmos 2315 Rocket 4.1 03:52:00 48° SE 03:53:28 59° E 03:59:41 10° NNE
Cosmos 883 Rocket 4.4 03:51:42 46° S 03:53:40 80° E 03:59:54 10° N
NOSS 3-2 (A) 4.1 03:46:38 10° NNW 03:54:20 74° ENE 03:57:41 40° SE
Helios 1B rocket 3.2 03:54:45 10° N 03:58:43 48° WNW 03:59:36 40° WSW
OAO 3 Rocket 3.4 03:55:13 10° W 03:59:32 57° SW 03:59:32 57° SW
SL-14 R/B 3.8 04:02:21 50° W 04:02:25 51° W 04:06:15 10° N
Okean 3 Rocket 4.0 04:03:23 51° ENE 04:03:23 51° ENE 04:07:04 10° NNE
Cosmos 1386 Rocket 4.5 03:57:47 10° N 04:03:50 72° W 04:05:35 47° SSW
Cosmos 1302 Rocket 4.0 04:00:58 10° NNW 04:06:15 74° WSW 04:06:56 64° SSW
COSMOS 2406 3.7 04:01:39 10° NNW 04:07:13 51° WSW 04:08:28 43° SW
Cosmos 2251 Rocket 4.3 04:05:50 24° SW 04:08:46 48° WNW 04:13:56 10° N
CZ-2C R/B 3.3 04:09:46 58° S 04:10:57 82° WSW 04:16:47 10° NNW
NOSS 3-2 (C) 4.1 04:11:09 10° NNW 04:18:53 77° ENE 04:21:38 47° SE
Cosmos 2221 2.9 04:15:06 10° NNW 04:19:04 59° WNW 04:19:04 59° WNW
Cosmos 1992 Rocket 4.3 04:19:36 10° N 04:24:42 53° ENE 04:24:47 53° ENE
Aureole 3 Rocket 4.3 04:24:05 46° S 04:26:47 85° W 04:32:56 10° N
Cosmos 2297 3.5 04:34:22 77° ESE 04:34:23 77° ESE 04:40:06 10° NNE
ATLAS 5 CENTAUR R/B 2.1 04:35:21 56° WNW 04:35:31 57° NW 04:40:16 10° NNE
Meteor 1-27 4.4 04:31:58 10° N 04:37:46 62° E 04:38:01 61° E
Cosmos 2082 Rocket 2.2 04:37:27 10° NNW 04:43:09 66° ENE 04:43:22 65° E
NOSS 3-4 (A) 4.4 04:37:55 12° WSW 04:43:15 44° NW 04:49:21 10° NNE
NOSS 3-4 (C) 4.4 04:38:08 13° WSW 04:43:19 44° NW 04:49:26 10° NNE
RESURS DK-1 3.5 04:46:15 40° NNE 04:46:15 40° NNE 04:49:00 10° NNE
Cosmos 1626 4.2 04:48:43 24° WNW 04:48:43 24° WNW 04:51:13 10° NNW
Cosmos 1833 Rocket 2.6 04:42:27 10° NNW 04:48:06 83° ENE 04:48:06 83° ENE
Cosmos 407 Rocket 4.1 04:50:46 44° ENE 04:50:46 44° ENE 04:54:39 10° NNE
COBE Rocket 4.2 04:45:10 10° N 04:50:12 64° WNW 04:50:20 63° W
ADEOS Rocket 3.4 04:45:03 10° NNE 04:50:52 50° E 04:50:52 50° E
CENTAUR R/B 3.3 04:43:21 10° NNW 04:51:23 65° NE 04:54:15 44° ESE
Terra 3.6 04:53:44 22° W 04:53:47 22° W 04:57:28 10° NW
Nadezhda 1 Rocket 4.2 04:55:01 58° E 04:55:13 58° E 05:01:29 10° NNE
CZ-2C R/B 3.7 04:52:22 10° N 04:57:20 38° WNW 04:58:36 33° W
ALOS 2 3.7 05:02:11 38° NE 05:02:11 38° NE 05:05:22 10° N
Cosmos 1190 Rocket 4.3 05:02:28 59° NE 05:02:28 59° NE 05:06:48 10° NNE
BREEZE-M R/B 4.4 04:58:50 10° NW 05:04:34 68° NE 05:07:01 40° ESE
USA 234 3.9 04:59:08 10° ENE 05:03:51 38° E 05:03:51 38° E
Cosmos 1943 Rocket 4.1 05:08:10 17° ENE 05:08:10 17° ENE 05:10:20 10° ENE
Cosmos 1455 4.0 05:03:21 10° NNW 05:05:23 29° NNW 05:05:23 29° NNW
Cosmos 1809 Rocket 4.4 05:04:25 10° N 05:10:31 73° E 05:10:37 72° E
Cosmos 1151 Rocket 4.2 05:11:34 10° N 05:14:22 39° NNE 05:14:22 39° NNE
Cosmos 2074 Rocket 4.0 05:16:08 10° NNW 05:22:22 70° W 05:22:35 70° WSW
SL-19 R/B 4.5 05:19:08 10° N 05:24:28 58° WNW 05:24:28 58° WNW
H-2A R/B 3.4 05:27:11 34° NNE 05:27:11 34° NNE 05:29:44 10° N
Mayak 0.1 05:23:33 10° N 05:26:16 38° NNW 05:26:16 38° NNW
ATLAS 3B R/B 4.3 05:27:47 10° WNW 05:31:41 18° WSW 05:31:41 18° WSW
Meteor 2-14 Rocket 4.3 05:32:00 10° N 05:37:58 87° NNW 05:37:58 87° NNW
CZ-4B R/B 4.1 05:52:51 10° N 05:57:41 51° WNW 05:57:41 51° WNW
Meteor 2-8 Rocket 4.3 05:58:39 81° E 05:58:39 81° E 06:04:44 10° N
Meteor 2-10 Rocket 4.1 05:53:44 10° NNW 05:57:53 50° WNW 05:57:53 50° WNW
Cosmos 2154 Rocket 4.2 06:00:24 10° NNW 06:06:36 57° W 06:06:37 57° W
Cosmos 2369 Rocket 2.2 06:07:14 75° NNE 06:07:14 75° NNE 06:12:25 10° NNE
Cosmos 2181 Rocket 3.9 06:08:31 87° S 06:08:38 90° NNW 06:14:56 10° N
Cosmos 1741 Rocket 4.4 06:14:25 59° NE 06:14:25 59° NE 06:18:49 10° NNE
Cosmos 1140 Rocket 4.3 06:15:25 42° NW 06:15:25 42° NW 06:19:57 10° N
Cosmos 371 Rocket 4.4 06:11:02 10° NNW 06:14:13 38° NW 06:14:13 38° NW
Sich 1 4.2 06:18:55 42° NNE 06:18:55 42° NNE 06:21:53 10° N
Cosmos 2341 Rocket 4.0 06:14:07 10° NNW 06:20:26 68° W 06:20:30 68° W
Cosmos 2082 Rocket 4.4 06:23:32 10° WNW 06:25:12 14° W 06:25:12 14° W
Cosmos 2218 Rocket 3.8 06:25:26 10° N 06:31:38 80° E 06:31:57 77° ESE
Cosmos 1825 4.4 06:33:14 22° NE 06:33:14 22° NE 06:35:02 10° NNE
Cosmos 1656 Rocket 4.4 06:32:57 44° E 06:32:57 44° E 06:37:52 10° NE
SL-8 Rocket 3.8 06:26:33 10° N 06:32:52 83° W 06:33:04 81° SW
Cosmos 864 Rocket 4.4 06:28:06 10° N 06:34:21 72° E 06:34:51 69° ESE
Cosmos 1633 Rocket 3.9 06:41:05 48° N 06:41:05 48° N 06:44:18 10° N
CENTAUR R/B 4.1 06:34:55 10° NW 06:41:24 30° WSW 06:41:24 30° WSW
Cosmos 2263 4.5 06:47:46 56° WNW 06:47:50 56° WNW 06:53:21 10° NNE
Cosmos 1470 Rocket 4.4 06:48:52 48° NE 06:48:52 48° NE 06:52:22 10° NNE
Meteor 2-15 4.3 06:47:37 74° SE 06:47:59 77° E 06:54:03 10° N
USA 234 3.9 06:42:02 10° NE 06:48:19 51° NW 06:51:10 31° W
Cosmos 1943 Rocket 2.6 06:49:40 50° WNW 06:49:48 50° WNW 06:55:13 10° NNE
BREEZE-M DEB (TANK) 3.9 06:50:12 50° WSW 06:52:14 85° NW 06:55:44 10° NE
CZ-2D R/B 3.7 06:54:05 10° NE 06:58:23 24° E 06:59:14 23° ESE
Timation 2 Rocket 4.4 06:52:26 10° NW 06:58:50 51° WSW 06:58:50 51° WSW
Cosmos 2366 rocket 3.9 06:54:12 10° NNW 07:00:16 66° W 07:00:30 65° WSW
Cosmos 1833 4.4 06:54:51 10° NNW 07:00:25 66° ENE 07:01:17 57° ESE
Lacrosse 4 Rocket 2.3 07:02:20 47° ENE 07:02:20 47° ENE 07:05:41 10° NNE
Cosmos 1570 Rocket 4.0 06:57:16 10° NNW 07:02:07 74° NW 07:02:07 74° NW
SL-16 R/B 3.7 07:04:01 19° ESE 07:07:46 36° ENE 07:13:19 10° N
Nadezhda 3 Rocket 4.0 07:08:22 62° SSE 07:09:25 77° E 07:15:46 10° N
Cosmos 1933 Rocket 4.0 07:10:50 59° N 07:10:50 59° N 07:14:25 10° N
Resurs 1-4 Rocket 2.8 07:18:45 10° NNE 07:23:49 43° E 07:24:48 39° SE
Cosmos 1763 Rocket 3.4 07:22:51 10° NNW 07:27:56 76° ENE 07:28:32 66° SE
AQUA 4.2 07:24:31 10° NNE 07:29:10 52° E 07:29:32 50° ESE
Cosmos 1782 3.4 07:26:10 10° N 07:29:15 53° N 07:29:15 53° N
CBERS-1 4.1 07:26:40 10° NNE 07:31:47 64° ESE 07:32:27 58° SE
ARIANE 5 R/B 4.0 07:27:35 10° NE 07:31:49 27° E 07:33:18 23° SE
CZ-4B R/B 3.6 07:36:39 19° NNW 07:36:39 19° NNW 07:37:42 10° NNW
Meteor 1-10 Rocket 4.2 07:31:27 10° N 07:37:04 78° E 07:38:34 50° SSE
GP-B 3.2 07:32:40 10° N 07:36:45 65° NW 07:36:45 65° NW
ATLAS 2A CENTAUR R/B 4.4 07:41:25 34° SSW 07:43:49 36° S 07:51:27 10° ESE
Cosmos 1869 Rocket 3.6 07:45:46 63° ESE 07:46:04 65° E 07:50:23 10° NNE
Cosmos 44 Rocket 4.4 07:46:26 30° SE 07:47:11 32° ESE 07:51:32 10° NE
Cosmos 1814 Rocket 3.9 07:44:26 10° NNW 07:49:44 74° WSW 07:50:29 63° SSW
Cosmos 2369 Rocket 4.5 07:49:07 10° WNW 07:51:32 13° NW 07:53:58 10° NNW
Cosmos 1184 Rocket 4.3 07:48:57 10° NNE 07:51:56 32° ENE 07:52:02 32° E
Cosmos 44 3.3 07:51:52 58° SE 07:52:19 62° ESE 07:57:09 10° NE
Cosmos 841 Rocket 3.3 07:54:04 10° NNW 07:59:17 80° WSW 08:00:37 50° S
Cosmos 1821 Rocket 4.0 07:53:57 10° NNW 08:00:12 65° W 08:02:13 43° SSW
Cosmos 1867 4.3 07:59:09 36° W 08:00:35 44° NW 08:05:49 10° NNE
BREEZE-M DEB (TANK) 3.8 08:00:37 10° NW 08:02:56 37° NE 08:07:35 10° ESE
Cosmos 1862 3.5 08:03:44 58° WNW 08:03:44 58° WNW 08:07:28 10° N
Cosmos 1703 Rocket 3.5 08:04:04 10° NNW 08:08:24 61° W 08:08:38 60° WSW
Spot 4 Rocket 4.1 08:06:30 10° NNE 08:11:39 71° ESE 08:13:38 38° S
Okean 1-7 2.9 08:07:54 10° N 08:12:18 78° W 08:13:05 58° SSW
PSLV R/B 4.4 08:10:55 31° SE 08:12:47 62° ENE 08:16:57 10° N
H-2A R/B 2.3 08:09:12 10° N 08:13:06 61° WNW 08:13:18 60° W
Cosmos 1818 4.0 08:10:30 10° NW 08:15:33 39° WSW 08:15:37 39° WSW
Cosmos 292 Rocket 4.0 08:11:31 10° NNW 08:16:08 46° WSW 08:16:25 45° WSW
IRS-1C 4.2 08:13:04 10° N 08:18:21 63° WNW 08:20:06 41° SW
UNKNOWN OBJECT B 3.9 08:18:32 10° NNE 08:22:21 41° E 08:24:07 26° SSE
IRS-1D 3.5 08:17:20 10° N 08:22:24 66° WNW 08:24:03 41° SW
USA 229 DEB 3.9 08:21:20 10° NNW 08:28:37 80° ENE 08:36:03 10° SE
USA 229 4.0 08:21:26 10° NNW 08:28:43 79° ENE 08:36:09 10° SE
SL-08 R/B 3.7 08:30:18 38° SW 08:31:06 41° W 08:35:33 10° NNW
ADEOS II 3.1 08:26:47 10° NNE 08:31:45 41° E 08:35:53 14° SSE
Cosmos 1354 Rocket 4.0 08:30:07 37° SW 08:32:06 66° WNW 08:37:19 10° NNE
Cosmos 1733 Rocket 3.4 08:30:49 27° SSE 08:32:59 60° E 08:37:16 10° NNE
MOZ.5/SAFIR/RUBIN 5/SL-8 3.8 08:33:34 36° SSW 08:35:13 57° W 08:39:49 10° NNW
CZ-2D R/B 2.9 08:33:36 10° N 08:38:29 38° WNW 08:40:33 27° WSW
Meteor 1-4 Rocket 3.1 08:38:15 39° W 08:38:37 40° WNW 08:42:07 10° N
COSMOS 2455 2.9 08:33:02 10° NW 08:38:53 55° WSW 08:43:42 15° S
Lacrosse 4 Rocket 3.8 08:38:39 11° WNW 08:40:27 13° NW 08:42:39 10° NNW
CBERS 1 LM4 rocket 4.3 08:38:41 10° NNE 08:43:40 86° WNW 08:46:20 27° SSW
BREEZE-M TANK 4.3 08:43:53 10° WNW 08:46:14 20° N 08:48:29 10° NE
Cosmos 1697 Rocket 3.6 08:44:27 14° S 08:48:55 43° ESE 08:54:15 10° NE
Cosmos 1437 Rocket 4.3 08:48:18 22° W 08:49:00 23° WNW 08:52:18 10° NNW
Milstar 3 Cent rocket 4.2 08:30:40 10° WSW 08:49:14 57° S 08:57:46 10° ESE
Cosmos 968 Rocket 3.5 08:47:56 27° SSW 08:50:54 81° WNW 08:56:12 10° NNE
Cosmos 1812 2.6 08:47:12 10° N 08:51:05 84° W 08:53:29 22° S
SL-16 R/B 3.3 08:49:06 25° SW 08:51:20 32° W 08:56:46 10° NW
GPS 2-04 Rocket1 2.8 08:50:50 33° SW 08:52:29 60° SSE 08:56:29 10° E
PSLV R/B 2.9 08:52:54 21° WNW 08:54:44 83° NNE 08:57:41 10° ESE
ATLAS CENTAUR R/B 1.5 08:53:40 33° WSW 08:55:05 54° WNW 08:58:59 10° NNE
Cosmos 389 Rocket 2.6 08:54:30 34° SSW 08:55:51 62° W 08:59:28 10° N
Cosmos 1605 Rocket 4.3 08:50:36 10° NNW 08:56:23 47° W 09:00:21 20° SSW
ASTEX 1 3.7 08:56:39 10° SSE 09:01:37 71° E 09:06:36 10° N
SAR-Lupe-2 3.5 09:00:50 19° S 09:03:13 67° WSW 09:06:47 10° NNW
Resurs 1-4 Rocket 3.6 08:59:19 10° NNW 09:03:18 22° WNW 09:05:53 16° WSW
Cosmos 1459 Rocket 4.2 08:59:39 10° N 09:06:04 76° E 09:12:24 10° S
Cosmos 2369 3.7 09:04:24 20° SSW 09:08:26 81° WNW 09:14:07 10° NNE
Cosmos 2219 3.7 09:03:31 10° NW 09:08:41 38° WSW 09:13:25 12° S
Cosmos 2100 Rocket 4.0 09:03:14 10° N 09:09:26 87° E 09:15:40 10° S
Delta 2 Rocket 3.5 09:06:14 15° W 09:09:48 65° S 09:14:42 10° ESE
CZ-2D R/B 3.9 09:05:56 10° N 09:09:59 46° WNW 09:12:22 22° SW
ARIANE 5 R/B 3.5 09:06:34 10° N 09:10:52 30° WNW 09:13:38 18° WSW
Genesis I 3.5 09:07:19 10° NW 09:11:16 48° WSW 09:15:08 10° S
SL-8 R/B 3.6 09:06:37 10° WNW 09:11:26 73° SW 09:16:12 10° SE
Lacrosse 5 3.7 09:10:50 10° NNW 09:15:28 35° NE 09:20:05 10° ESE
Cosmos 1980 Rocket 3.3 09:10:35 10° S 09:15:46 40° ESE 09:21:00 10° NE
Helios 1A Rocket 3.7 09:21:25 10° N 09:25:07 36° WNW 09:27:51 16° SW
Okean O Rocket 4.2 09:22:51 10° NE 09:26:01 19° E 09:29:09 10° SE
Gbstr 26 Del rocket 3.3 09:26:13 15° SSW 09:29:05 48° SE 09:32:59 10° ENE
Cosmos 1633 4.1 09:27:54 15° WSW 09:29:31 20° WNW 09:32:16 10° NNW
CZ-4B R/B 4.2 09:29:12 10° NNE 09:33:10 42° E 09:37:17 10° S
Cosmos 2297 Rocket 2.2 09:28:20 10° NNW 09:33:55 64° WSW 09:39:28 10° S
Cosmos 2123 Rocket 4.1 09:28:24 10° S 09:34:35 80° E 09:40:47 10° N
PSLV R/B 3.8 09:31:01 10° NNE 09:35:24 74° ESE 09:39:46 10° S
Cosmos 2278 4.0 09:30:43 13° SW 09:35:33 54° WNW 09:41:06 10° NNE
Sich 1 Rocket 3.6 09:31:21 10° S 09:35:49 84° E 09:40:15 10° N
Cosmos 1271 Rocket 2.8 09:37:47 10° SSW 09:41:44 65° W 09:45:39 10° N
Cosmos 2227 Rocket 2.4 09:37:02 10° NNW 09:42:28 48° WSW 09:47:52 10° S
NOSS 3-1 (C) 4.2 09:36:20 10° NW 09:44:02 59° WSW 09:52:24 10° SSE
Okean 1 3.4 09:41:19 10° NNW 09:45:12 53° W 09:49:03 10° S
Okean 2 Rocket 4.0 09:43:34 10° SSE 09:47:49 51° E 09:52:08 10° NNE
Cosmos 1340 Rocket 3.4 09:44:26 10° N 09:48:20 61° E 09:52:13 10° SSE
Okean 3 4.3 09:45:36 10° NNW 09:49:18 31° W 09:53:02 10° SSW
Cosmos 2173 Rocket 4.3 09:45:21 10° NNW 09:51:06 45° W 09:56:51 10° SSW
NOSS 7 (H) 4.4 09:54:03 10° SW 09:57:43 80° WNW 10:01:01 10° NNE
Cosmos 1536 3.7 09:54:14 10° S 09:58:11 54° E 10:02:11 10° NNE
ATLAS 2A CENTAUR R/B 3.4 09:49:48 10° WSW 09:59:24 36° S 10:04:12 10° ESE
Shenzhou-11 Module 1.9 09:58:16 10° WSW 10:01:13 84° SSE 10:04:10 10° ENE
Iridium 96 4.3 09:59:44 10° NNW 10:02:41 46° W 10:05:18 10° SSW
Meteor 1-31 Rocket 3.8 10:00:29 10° NNE 10:04:17 49° E 10:08:05 10° S
Cosmos 1378 Rocket 4.3 10:00:22 10° NNW 10:04:25 36° W 10:08:29 10° SSW
Meteosat 1 Rocket2 4.3 10:01:34 10° SW 10:05:09 22° S 10:08:09 10° ESE
Cosmos 1782 Rocket 3.8 10:01:36 10° SSW 10:05:53 51° W 10:10:11 10° N
CZ-3 R/B 3.8 09:55:48 10° SW 10:13:58 31° S 10:20:15 10° ESE
